Regional Weather Roundup
Issued by NWS Goodland, KS

Home | Current Version | Previous Version | Text Only | Print | Product List | Glossary Off
Versions: 1 2 3 4 5 6 7 8 9 10 11 12 13 14 15 16 17 18 19 20 21 22 23 24 25 26 27 28 29 30 31 32 33 34 35 36 37 38 39 40 41 42 43 44 45 46 47 48 49 50

000
ASUS43 KGLD 302208
RWRGLD

GOODLAND FORECAST AREA HOURLY WEATHER ROUNDUP
NATIONAL WEATHER SERVICE GOODLAND KS
400 PM MDT THU JUL 30 2015

...OFFICIAL OBSERVATIONS...

CITY           SKY/WX    TMP DP  RH WIND       PRES   REMARKS
GOODLAND KS    SUNNY     88  58  36 SE10G20   30.23F
HILL CITY KS   SUNNY     89  64  43 S8        30.17F
IMPERIAL NEB   PTSUNNY   89  54  30 S7        30.20F
MCCOOK NEB     SUNNY     92  55  28 SE9       30.17F
AKRON CO       CLOUDY    85  55  35 NE9       30.25F
BURLINGTON CO  SUNNY     87  54  32 S12G21    30.25F
LIMON CO       MOSUNNY   84  52  33 S13       30.30F
$$

...UNOFFICIAL OBSERVATIONS...

CITY           SKY/WX    TMP DP  RH WIND       PRES   REMARKS
COLBY KS       SUNNY     88  64  45 S10       30.23F
NORTON KS      MOSUNNY   88  61  40 S9        30.18
$$



USA.gov is the U.S. government's official web portal to all federal, state and local government web resources and services.